[[{"header":{"parameterUnit":"m.s-1","parameterCategory":1,"la1":30.2991,"la2":30.254,"lo1":-89.0895,"lo2":-89.0444,"dy":0.0017,"dx":0.0017,"nx":28,"ny":28,"refTime":"2024-05-26T21:00:00:Z","depth":0,"parameterNumber":2,"parameterNumberName":"U-component_of_WINDS"},"data":[0,0,0,0,0,0,0,0,0,0,0,0,0,0,0,0,0,0,0,0,0,0,0,0,0,0,0,0,0,0,0,0,0,0,0,0,0,0,0,0,0,0,0,0,0,0,0,0,0,0,0,0,0,0,0,0,0,0,3.5359,3.536,0,3.5463,3.5464,3.5466,3.5402,3.5399,3.5396,3.5393,3.5501,3.5507,3.5512,0,0,0,0,0,0,0,0,0,0,0,0,0,3.5106,3.5111,3.5359,3.536,3.5362,3.5463,3.5464,3.5466,3.5403,3.5399,3.5395,3.5392,3.5499,3.5506,3.5513,0,0,0,0,0,0,0,0,0,0,0,0,0,3.5214,3.5113,3.5359,3.5342,3.5342,3.5463,3.5464,3.5466,3.5403,3.5399,3.5394,3.539,3.5497,3.5505,3.5514,3.5657,0,0,3.554,3.5543,0,0,0,0,0,0,0,0,3.5208,3.5223,3.5344,3.5344,3.5343,3.5415,3.5415,3.553,3.5404,3.538,3.5393,3.5388,3.5476,3.5486,3.5516,3.5662,3.5667,3.554,3.5546,3.5549,3.5552,0,0,0,0,0,0,0,3.52,3.5218,3.54,3.5345,3.5345,3.533,3.534,3.5436,3.5452,3.5382,3.5377,3.5391,3.5475,3.5508,3.5518,3.5668,3.554,3.5548,3.5553,3.5556,3.5935,3.594,0,0,0,0,0,0,3.5194,3.5212,3.5397,3.5403,3.5263,3.5338,3.5349,3.5397,3.5451,3.5455,3.5394,3.5387,3.5495,3.5508,3.5521,3.569,3.5549,3.5557,3.5562,3.593,3.5936,3.5941,0,0,0,0,0,0,3.5189,3.5211,3.5393,3.5307,3.5329,3.5347,3.5401,3.5401,3.5433,3.546,3.5463,3.5424,3.5492,3.5509,3.5623,3.5693,3.5561,3.5569,3.5924,3.5932,3.5939,3.6031,0,0,0,0,0,0,3.5182,3.521,3.5264,3.5308,3.5334,3.5493,3.5405,3.5406,3.5448,3.544,3.5489,3.5493,3.549,3.5611,3.5631,3.5703,3.5575,3.5918,3.5927,3.5936,3.6022,3.6041,3.6057,0,0,0,0,0,3.5173,3.5287,3.5267,3.529,3.5402,3.5497,3.5512,3.5505,3.5454,3.5509,3.5526,3.5492,3.5683,3.5623,3.5646,3.5721,3.5913,3.5925,3.5936,3.6014,3.6037,3.6057,0,0,0,0,0,0,3.5251,3.5293,3.5271,3.5403,3.5447,3.5486,3.5555,3.553,3.559,3.558,3.557,3.5581,3.5699,3.5722,3.5654,3.5861,3.579,3.5806,3.5842,3.5864,3.5881,3.5872,3.5583,0,0,0,0,0,3.5284,3.5357,3.539,3.5503,3.5526,3.5537,3.5578,3.5569,3.5615,3.5633,3.5659,3.5704,3.5774,3.5821,3.5887,3.6025,3.6034,3.6088,3.6106,3.612,3.6133,3.6206,3.623,3.5978,3.5978,3.5977,0,0,3.5352,3.5384,3.5431,3.5519,3.5552,3.5628,3.5553,3.5637,3.5693,3.5646,3.5754,3.5775,3.5825,3.5951,3.6008,3.5973,3.6205,3.6134,3.6145,3.6151,3.622,3.6244,3.6265,3.5985,3.5984,3.5983,0,0,3.5514,3.5547,3.5643,3.5677,3.5728,3.5734,3.5758,3.5801,3.5812,3.5921,3.5886,3.5953,3.6075,3.6111,3.6145,3.632,3.629,3.6342,3.6433,3.6504,3.6524,3.6541,3.6601,3.6623,3.6356,3.6356,3.6356,0,3.5592,3.5705,3.5696,3.5782,3.5821,3.5781,3.5878,3.5913,3.5983,3.601,3.5971,3.612,3.6152,3.6285,3.6327,3.6357,3.6382,3.6336,3.6522,3.6539,3.6555,3.6613,3.6636,3.6362,3.6361,3.6361,3.636,0,3.5798,3.5876,3.5948,3.6015,3.6063,3.6155,3.6159,3.6208,3.6195,3.6206,3.6316,3.6352,3.6423,3.6454,3.6443,3.6586,3.6562,3.6523,3.6451,3.6585,3.6639,3.6661,3.637,3.6368,3.6367,3.6365,0,0,3.6011,3.6072,3.6098,3.6127,3.618,3.624,3.633,3.6399,3.644,3.649,3.6563,3.6667,3.6629,3.6669,3.6661,3.6724,3.6857,3.6676,3.6677,3.6706,3.7013,3.7041,3.7067,3.6838,3.6842,3.6846,3.7008,0,3.6175,3.6329,3.6323,3.6468,3.6539,3.6502,3.658,3.662,3.6633,3.6695,3.6709,3.6781,3.6728,3.6751,3.6811,3.6828,3.6918,3.6817,3.6905,3.6908,3.6891,3.7095,3.7125,3.7277,3.7029,3.7033,3.7036,0,3.6386,3.6441,3.6592,3.6632,3.6662,3.6732,3.6793,3.6854,3.6899,3.6904,3.6947,3.6929,3.7018,3.6946,3.7068,3.6999,3.7035,3.7049,3.7055,3.7061,3.6979,3.7105,3.7325,3.7347,3.7069,3.7066,3.7064,0,3.6523,3.6636,3.674,3.6767,3.6817,3.6866,3.689,3.693,3.6971,3.7026,3.7052,3.7117,3.7152,3.7203,3.7202,3.715,3.7326,3.7253,3.7331,3.7331,3.7368,3.7365,3.7595,3.7395,3.7395,3.7394,3.7394,0,3.6705,3.6798,3.6802,3.6866,3.6969,3.6962,3.7064,3.7082,3.7118,3.7185,3.7158,3.7221,3.7218,3.7282,3.7282,3.7382,3.7399,3.7404,3.7403,3.7406,3.7404,3.7427,3.7416,3.7401,3.7399,3.7398,3.7397,0,3.6875,3.6882,3.6993,3.7031,3.7042,3.7116,3.7149,3.7209,3.7219,3.7303,3.7323,3.7338,3.7412,3.7417,3.7503,3.7503,3.7623,3.7612,3.7608,3.7605,3.7681,3.7673,3.7932,3.7964,3.7746,3.7748,3.775,0,3.6989,3.706,3.7105,3.7147,3.7173,3.7242,3.7283,3.7279,3.7323,3.7379,3.7432,3.7503,3.7559,3.7679,3.7697,3.7762,3.775,3.7837,3.776,3.7759,3.7749,3.7743,3.7749,3.7851,3.7853,3.7855,3.7857,0,3.719,3.719,3.7251,3.7313,3.7363,3.7412,3.7457,3.7494,3.7494,3.7546,3.762,3.7663,3.775,3.782,3.7883,3.7907,3.7882,3.7881,3.7902,3.7904,3.7898,3.79,3.7646,3.7875,3.7873,3.7872,3.7871,3.787,3.7334,3.7394,3.7435,3.7503,3.7537,3.758,3.7638,3.7654,3.7716,3.7785,3.7779,3.7861,3.7903,3.7985,3.8014,3.8077,3.8048,3.8079,3.8086,3.8093,3.81,3.789,3.8089,3.8089,3.8088,3.8088,3.8087,0,3.7532,3.7556,3.7619,3.7682,3.7736,3.7708,3.7757,3.7803,3.7875,3.7916,3.7972,3.8056,3.8124,3.8148,3.8213,3.826,3.825,3.8277,3.8272,3.8278,3.8124,3.8098,3.8284,3.8284,3.8283,3.8283,3.8283,3.8283,3.764,3.774,3.7744,3.786,3.7883,3.7963,3.7992,3.8031,3.8064,3.8159,3.8215,3.823,3.8264,3.8331,3.8392,3.8397,3.8421,3.8453,3.8453,3.8309,3.8289,3.827,3.8245,3.8459,3.8459,3.8601,3.8603,3.8604]},{"header":{"parameterUnit":"m.s-1","parameterCategory":1,"la1":30.2991,"la2":30.254,"lo1":-89.0895,"lo2":-89.0444,"dy":0.0017,"dx":0.0017,"nx":28,"ny":28,"refTime":"2024-05-26T21:00:00:Z","depth":0,"parameterNumber":3,"parameterNumberName":"V-component_of_WINDS"},"data":[0,0,0,0,0,0,0,0,0,0,0,0,0,0,0,0,0,0,0,0,0,0,0,0,0,0,0,0,0,0,0,0,0,0,0,0,0,0,0,0,0,0,0,0,0,0,0,0,0,0,0,0,0,0,0,0,0,0,3.0543,3.0544,0,3.0667,3.0669,3.067,3.0669,3.0668,3.0666,3.0665,3.0789,3.0794,3.0799,0,0,0,0,0,0,0,0,0,0,0,0,0,3.0301,3.0305,3.0543,3.0544,3.0546,3.0667,3.0669,3.0671,3.067,3.0668,3.0666,3.0664,3.0788,3.0794,3.0799,0,0,0,0,0,0,0,0,0,0,0,0,0,3.0414,3.0307,3.0542,3.056,3.0563,3.0667,3.0669,3.0671,3.067,3.0668,3.0665,3.0663,3.0786,3.0793,3.08,3.0894,0,0,3.0822,3.0826,0,0,0,0,0,0,0,0,3.0407,3.0422,3.0556,3.0559,3.0562,3.065,3.0629,3.0746,3.0671,3.0629,3.0664,3.0662,3.0745,3.0755,3.0784,3.09,3.0905,3.0823,3.0827,3.0831,3.0833,0,0,0,0,0,0,0,3.0399,3.0417,3.0592,3.0558,3.0562,3.0561,3.0574,3.0651,3.0699,3.0633,3.0633,3.0648,3.0746,3.0777,3.0787,3.0907,3.0823,3.0829,3.0834,3.0837,3.1105,3.1107,0,0,0,0,0,0,3.0388,3.0411,3.0588,3.0596,3.0477,3.0567,3.0582,3.0625,3.0698,3.0707,3.065,3.0647,3.0766,3.0779,3.0791,3.0906,3.0831,3.0837,3.0841,3.1102,3.1105,3.1108,0,0,0,0,0,0,3.0383,3.0404,3.0583,3.0503,3.0526,3.0574,3.0622,3.0628,3.0659,3.0711,3.072,3.0673,3.0764,3.0781,3.0868,3.091,3.0841,3.0847,3.1099,3.1103,3.1107,3.1135,0,0,0,0,0,0,3.0376,3.0402,3.0439,3.0504,3.053,3.0659,3.0624,3.0633,3.0672,3.067,3.0735,3.0744,3.0764,3.0858,3.0876,3.0919,3.0853,3.1095,3.1101,3.1105,3.1131,3.114,3.1147,0,0,0,0,0,3.0368,3.0442,3.0441,3.0463,3.0578,3.0662,3.0676,3.0699,3.0676,3.0713,3.0746,3.0741,3.0902,3.0867,3.0887,3.0933,3.1093,3.1099,3.1105,3.1127,3.1138,3.1147,0,0,0,0,0,0,3.038,3.0451,3.0451,3.0549,3.0599,3.0661,3.0709,3.071,3.0768,3.0763,3.0788,3.0803,3.089,3.092,3.0879,3.1027,3.0994,3.1005,3.1004,3.1015,3.1023,3.1014,3.0859,0,0,0,0,0,3.0395,3.0458,3.0516,3.0596,3.0622,3.0661,3.0698,3.0711,3.0764,3.0785,3.0825,3.0876,3.0938,3.0978,3.1038,3.1135,3.1148,3.1176,3.1184,3.1191,3.12,3.1252,3.1265,3.1129,3.1129,3.1129,0,0,3.0425,3.0471,3.0509,3.06,3.0641,3.0704,3.0679,3.0748,3.0795,3.0795,3.0881,3.0911,3.0969,3.1062,3.1104,3.1089,3.124,3.1199,3.1204,3.1209,3.126,3.1273,3.1284,3.1133,3.1132,3.1131,0,0,3.0512,3.0554,3.0625,3.0666,3.0728,3.0754,3.0771,3.0833,3.0853,3.0939,3.0941,3.0996,3.1103,3.1144,3.1179,3.128,3.1278,3.1299,3.1342,3.1393,3.1404,3.1414,3.1449,3.1462,3.1307,3.1308,3.1308,0,3.0541,3.0638,3.0661,3.0731,3.077,3.0774,3.0846,3.0884,3.0962,3.0989,3.0971,3.1104,3.1144,3.1245,3.127,3.1298,3.1317,3.1292,3.1401,3.1411,3.142,3.1454,3.1467,3.131,3.1309,3.1309,3.1309,0,3.0671,3.0738,3.0788,3.0864,3.0909,3.0979,3.1011,3.1054,3.1062,3.1089,3.1176,3.1223,3.1292,3.1317,3.1326,3.142,3.1408,3.1396,3.1364,3.1435,3.1467,3.148,3.1313,3.1312,3.1311,3.1311,0,0,3.077,3.0857,3.0875,3.0909,3.0978,3.1029,3.1099,3.1167,3.1203,3.1256,3.1314,3.1403,3.1392,3.1431,3.1445,3.1489,3.1565,3.1471,3.1473,3.1486,3.167,3.1679,3.1694,3.1564,3.1567,3.1569,3.1665,0,3.0864,3.0989,3.1011,3.1119,3.1181,3.1185,3.1245,3.1293,3.132,3.1375,3.1404,3.1467,3.1447,3.147,3.1515,3.1547,3.1603,3.154,3.1618,3.162,3.1603,3.1711,3.1721,3.181,3.1678,3.168,3.1682,0,3.0991,3.1048,3.1162,3.1221,3.1248,3.1302,3.1366,3.1419,3.1472,3.1489,3.1532,3.154,3.1611,3.1576,3.1673,3.163,3.1663,3.1683,3.1687,3.1695,3.1655,3.1721,3.1839,3.1852,3.1702,3.17,3.1699,0,3.1051,3.1156,3.1238,3.1267,3.1338,3.1376,3.1407,3.1458,3.1498,3.1553,3.1578,3.1641,3.1675,3.1723,3.1747,3.1719,3.1842,3.1809,3.1856,3.1856,3.1882,3.188,3.2006,3.1904,3.1903,3.1903,3.1903,0,3.1153,3.1223,3.1266,3.1316,3.1394,3.1419,3.1494,3.1525,3.157,3.1625,3.1632,3.1684,3.1713,3.1769,3.1788,3.1865,3.188,3.1894,3.1898,3.1894,3.1892,3.1915,3.191,3.1907,3.1906,3.1905,3.1905,0,3.1234,3.1265,3.1355,3.1415,3.1431,3.1486,3.1537,3.1585,3.1611,3.1681,3.1699,3.174,3.1805,3.1834,3.1915,3.1928,3.2015,3.2015,3.1998,3.1999,3.2045,3.204,3.219,3.221,3.2095,3.2096,3.2097,0,3.1297,3.1351,3.1416,3.1454,3.1487,3.1548,3.1588,3.1613,3.1655,3.1719,3.176,3.1826,3.188,3.1984,3.202,3.2081,3.2082,3.2131,3.2092,3.2085,3.2082,3.2079,3.2084,3.2138,3.2139,3.214,3.214,0,3.1405,3.1418,3.1476,3.154,3.1588,3.1639,3.1689,3.1719,3.1752,3.1798,3.1865,3.1907,3.199,3.2055,3.2118,3.2149,3.215,3.2152,3.2167,3.2162,3.2149,3.2156,3.2017,3.2149,3.2148,3.2147,3.2147,3.2147,3.1479,3.1526,3.158,3.1644,3.1684,3.1731,3.1779,3.1811,3.1868,3.1938,3.1949,3.2021,3.2072,3.2157,3.219,3.2246,3.2234,3.2254,3.226,3.2264,3.2267,3.2141,3.2257,3.2257,3.2257,3.2257,3.2257,0,3.1587,3.1622,3.1681,3.175,3.18,3.1798,3.1853,3.1894,3.1958,3.2006,3.2059,3.2136,3.2198,3.2239,3.2302,3.2339,3.2341,3.2354,3.2352,3.2359,3.2274,3.2255,3.2352,3.2352,3.2352,3.2352,3.2352,3.2352,3.1649,3.173,3.1749,3.1849,3.1882,3.1953,3.1985,3.2027,3.2065,3.2151,3.2204,3.223,3.2275,3.2341,3.2398,3.2408,3.2431,3.2445,3.2455,3.2375,3.2365,3.2355,3.2338,3.245,3.245,3.2535,3.2535,3.2536]}]]